WetterOnline ( https://www.wetteronline.at )

Wetter aktuell Hoyerswerda

Aktuelles Wetter: Hoyerswerda (116m)

6-stündlich | Neueste Meldungen
Ortszeit Temperatur Wetter
So, 15.09. 20:00 15.8° C wolkig
So, 15.09. 14:00 23.4° C leicht bewölkt
So, 15.09. 8:00 10.1° C wolkig
So, 15.09. 2:00 7.1° C fast wolkenlos
Sa, 14.09. 20:00 12.3° C wolkig
Sa, 14.09. 14:00 19.3° C leicht bewölkt
Sa, 14.09. 8:00 8.3° C wolkenlos
Sa, 14.09. 2:00 10.3° C leicht bewölkt
Ortszeit Temperatur Wetter
So, 15.09. 22:30 16.1° C wolkig
So, 15.09. 22:20 16.1° C wolkig
So, 15.09. 22:10 16.5° C wolkig
So, 15.09. 22:00 15.6° C wolkig
So, 15.09. 21:50 15.6° C wolkig
So, 15.09. 21:40 16.0° C wolkig
So, 15.09. 21:30 17.3° C wolkig
So, 15.09. 21:00 18.0° C wolkig
So, 15.09. 20:30 16.1° C wolkig
So, 15.09. 20:00 15.8° C wolkig
So, 15.09. 19:30 18.0° C wolkig
Ortszeit Relative Feuchte Sichtweite
So, 15.09. 20:00 62% 35 km
So, 15.09. 14:00 35% >70 km
So, 15.09. 8:00 83% 40 km
So, 15.09. 2:00 98% 24 km
Sa, 14.09. 20:00 71% 50 km
Sa, 14.09. 14:00 44% 45 km
Sa, 14.09. 8:00 95% 30 km
Sa, 14.09. 2:00 92% 50 km
Ortszeit Relative Feuchte Sichtweite
So, 15.09. 22:30 55% >70 km
So, 15.09. 22:20 55% -
So, 15.09. 22:10 54% -
So, 15.09. 22:00 57% >70 km
So, 15.09. 21:50 57% -
So, 15.09. 21:40 56% -
So, 15.09. 21:30 51% 65 km
So, 15.09. 21:00 50% 65 km
So, 15.09. 20:30 59% 55 km
So, 15.09. 20:00 62% 35 km
So, 15.09. 19:30 51% 26 km
Ortszeit Niederschlagsmenge Niederschlagsart
So, 15.09. 20:00 0.0 l/m2 in 12 Std. -
So, 15.09. 14:00 0.0 l/m2 in 6 Std. -
So, 15.09. 8:00 0.0 l/m2 in 12 Std. -
So, 15.09. 2:00 0.0 l/m2 in 6 Std. -
Sa, 14.09. 20:00 0.0 l/m2 in 12 Std. -
Sa, 14.09. 14:00 0.0 l/m2 in 6 Std. -
Sa, 14.09. 8:00 0.0 l/m2 in 12 Std. -
Sa, 14.09. 2:00 0.0 l/m2 in 6 Std. -
Ortszeit Niederschlagsmenge Niederschlagsart
So, 15.09. 22:30 0.0 l/m2 in 1 Std. -
So, 15.09. 22:20 keine Meldung -
So, 15.09. 22:10 keine Meldung -
So, 15.09. 22:00 0.0 l/m2 in 1 Std. -
So, 15.09. 21:50 keine Meldung -
So, 15.09. 21:40 keine Meldung -
So, 15.09. 21:30 0.0 l/m2 in 1 Std. -
So, 15.09. 21:00 0.0 l/m2 in 1 Std. -
So, 15.09. 20:30 0.0 l/m2 in 1 Std. -
So, 15.09. 20:00 0.0 l/m2 in 1 Std. -
So, 15.09. 19:30 0.0 l/m2 in 1 Std. -
Ortszeit Stärke Spitze Richtung
km/h Bft. km/h Grad Sektor
So, 15.09. 20:00 0 0 40 - -
So, 15.09. 14:00 25 4 43 240° SW
So, 15.09. 8:00 7 2 13 180° S
So, 15.09. 2:00 2 1 6 110° O
Sa, 14.09. 20:00 2 1 19 70° O
Sa, 14.09. 14:00 9 2 20 330° NW
Sa, 14.09. 8:00 2 1 6 180° S
Sa, 14.09. 2:00 4 1 18 330° NW
Ortszeit Stärke Spitze Richtung
km/h Bft. km/h Grad Sektor
So, 15.09. 22:30 9 2 13 260° W
So, 15.09. 22:20 9 2 - 260° W
So, 15.09. 22:10 9 2 - 250° W
So, 15.09. 22:00 7 2 15 250° W
So, 15.09. 21:50 7 2 - 250° W
So, 15.09. 21:40 9 2 - 270° W
So, 15.09. 21:30 11 2 14 260° W
So, 15.09. 21:00 11 2 18 260° W
So, 15.09. 20:30 7 2 13 220° SW
So, 15.09. 20:00 0 0 7 - -
So, 15.09. 19:30 4 1 7 300° NW
Ortszeit Untergrenze Bedeckung Gattung
total tief tief mittel hoch
So, 15.09. 20:00 9000 m 8/8 0/8 - - -
So, 15.09. 14:00 9000 m 7/8 0/8 - - -
So, 15.09. 8:00 10500 m 8/8 0/8 - - -
So, 15.09. 2:00 12000 m 1/8 0/8 - - -
Sa, 14.09. 20:00 9000 m 8/8 0/8 - - -
Sa, 14.09. 14:00 1470 m 3/8 1/8 - - -
Sa, 14.09. 8:00 - 0/8 0/8 - - -
Sa, 14.09. 2:00 1470 m 4/8 2/8 - - -
Ortszeit Bedeckungsgrad in Achtel und Wolkenuntergrenze
So, 15.09. 22:30 4(9000m) 8(10500m)
So, 15.09. 22:20 4(9000m) 8(10500m)
So, 15.09. 22:10 7(9000m) 8(10500m)
So, 15.09. 22:00 5(9000m) 8(9000m) 8(10500m)
So, 15.09. 21:50 5(9000m) 8(9000m) 8(10500m)
So, 15.09. 21:40 8(9000m) 8(10500m)
So, 15.09. 21:30 7(9000m) 8(10500m)
So, 15.09. 21:00 4(9000m) 7(10500m) 7(10500m)
So, 15.09. 20:30 3(8100m) 7(9000m) 7(10500m)
So, 15.09. 20:00 6(9000m) 8(9000m) 8(10500m)
So, 15.09. 19:30 8(8400m) 8(10500m) 8(10500m)
Ortszeit Luftdruck NN (hPa) Tendenz (hPa in 3 Std.)
So, 15.09. 20:00 1018 - 0,7
So, 15.09. 14:00 1020 - 1,9
So, 15.09. 8:00 1024 - 2,0
So, 15.09. 2:00 1029 - 1,6
Sa, 14.09. 20:00 1031 - 0,7
Sa, 14.09. 14:00 1033 - 1,0
Sa, 14.09. 8:00 1035 + 1,0
Sa, 14.09. 2:00 1034 + 1,0
Ortszeit Luftdruck NN (hPa) Tendenz (hPa in 3 Std.)
So, 15.09. 22:30 1018 + 0,2
So, 15.09. 22:20 1018 keine Meldung
So, 15.09. 22:10 1018 keine Meldung
So, 15.09. 22:00 1018 + 0,4
So, 15.09. 21:50 1018 keine Meldung
So, 15.09. 21:40 1018 keine Meldung
So, 15.09. 21:30 1018 + 0,3
So, 15.09. 21:00 1018 + 0,2
So, 15.09. 20:30 1018 - 0,4
So, 15.09. 20:00 1018 - 0,7
So, 15.09. 19:30 1018 - 0,8
Ortszeit Schneehöhe (cm)
So, 15.09. 20:00 -
So, 15.09. 14:00 -
So, 15.09. 8:00 -
So, 15.09. 2:00 -
Sa, 14.09. 20:00 -
Sa, 14.09. 14:00 -
Sa, 14.09. 8:00 -
Sa, 14.09. 2:00 -
Ortszeit Schneehöhe (cm)
So, 15.09. 22:30 -
So, 15.09. 22:20 -
So, 15.09. 22:10 -
So, 15.09. 22:00 -
So, 15.09. 21:50 -
So, 15.09. 21:40 -
So, 15.09. 21:30 -
So, 15.09. 21:00 -
So, 15.09. 20:30 -
So, 15.09. 20:00 -
So, 15.09. 19:30 -
Link zu dieser Seite / Seite empfehlen

Das Wetter in ...